This demonstration page uses our WeatherBlox Daily Observations layout. Learn more.

Left ArrowRight Arrow

36.17497, -115.13722

Hourly Observations for September 14, 2015

Temp ( °F °C ) Dew Point ( °F °C ) Humidity (%) Winds ( mph kmh ) Pressure ( in mb ) Visibility ( mi km ) Precip ( " mm )
12:53 am 00:53 Mostly Clear 81 27.2 52 11.1 37 37 E 8 13 29.76 1008 10 16 N/A
1:53 am 01:53 Mostly Cloudy 81 27.2 52 11.1 37 37 S 8 13 29.76 1008 10 16 N/A
2:53 am 02:53 Partly Cloudy 81 27.2 53 11.7 38 38 S 10 17 29.75 1007 10 16 N/A
3:53 am 03:53 Mostly Cloudy with Light Rain 79 26.1 56 13.3 45 45 W 12 19 29.75 1007 10 16 N/A
4:53 am 04:53 Cloudy 79 26.1 53 11.7 41 41 SE 12 19 29.76 1008 10 16 N/A
5:53 am 05:53 Clear 78 25.6 53 11.7 42 42 N N/A 29.78 1008 10 16 N/A
6:53 am 06:53 Sunny 78 25.6 53 11.7 42 42 SSE 6 9 29.79 1009 10 16 N/A
7:53 am 07:53 Sunny 80 26.7 54 12.2 41 41 ESE 8 13 29.80 1009 10 16 N/A
8:53 am 08:53 Sunny 82 27.8 55 12.8 40 40 E 10 17 29.80 1009 10 16 N/A
9:53 am 09:53 Sunny 83 28.3 56 13.3 40 40 E 7 11 29.80 1009 10 16 N/A
10:53 am 10:53 Sunny 85 29.4 59 15 42 42 S 9 15 29.80 1009 10 16 N/A
11:53 am 11:53 Sunny 89 31.7 58 14.4 35 35 SSE 9 15 29.78 1008 10 16 N/A
12:53 pm 12:53 Mostly Sunny 89 31.7 56 13.3 33 33 SE 9 15 29.74 1007 10 16 N/A
1:53 pm 13:53 Mostly Sunny 93 33.9 55 12.8 28 28 SE 10 17 29.69 1005 10 16 N/A
2:14 pm 14:14 Mostly Sunny 97 36 46 8 18 18 SW 16 26 29.50 999 10 16 N/A
2:53 pm 14:53 Sunny 95 35 46 7.8 19 19 SW 18 30 29.65 1004 10 16 N/A
3:53 pm 15:53 Sunny 96 35.6 45 7.2 17 17 S 17 28 29.62 1003 10 16 N/A
4:53 pm 16:53 Mostly Cloudy 95 35 48 8.9 20 20 SSW 12 19 29.60 1002 10 16 N/A
5:53 pm 17:53 Mostly Sunny 92 33.3 49 9.4 23 23 SSW 23 37 29.61 1003 10 16 N/A
6:53 pm 18:53 Mostly Clear 88 31.1 53 11.7 30 30 S 28 44 29.62 1003 10 16 N/A
7:53 pm 19:53 Clear 85 29.4 55 12.8 36 36 S 10 17 29.64 1004 10 16 N/A
8:53 pm 20:53 Clear 84 28.9 56 13.3 38 38 S 13 20 29.66 1005 10 16 N/A
9:53 pm 21:53 Clear 86 30 47 8.3 26 26 SW 10 17 29.67 1005 10 16 N/A
10:53 pm 22:53 Clear 84 28.9 46 7.8 27 27 W 10 17 29.68 1005 10 16 N/A
11:53 pm 23:53 Clear 83 28.3 47 8.3 28 28 SW 8 13 29.68 1005 10 16 N/A

Powered by AerisWeather